Back to catalog

COSMOS 2251 DEB

AliveLEO
NORAD 47067·DEBRIS·🇷🇺 Russia

Launched Jun 16, 1993 from Plesetsk Cosmodrome

Loading…

Next Passes (next 24 hours)

TLE

FreshSource: Space-Track

Epoch: Sep 14, 2026, 06:29 UTC

1 47067U 93036BXX 26257.27042634  .00011602  00000-0  33912-2 0  9995
2 47067  74.2052   3.8327 0162576 138.9067 249.2961 14.36618071740067

Track COSMOS 2251 DEB in real time with AllMySat

Download on the App Store